Hourly Weather Rudniki

Today, 10 April, Saturday

Time Temperature Precipitation Wind Pressure Humidity
00:00 +4°C° 0 mm 3 mps 752 mmHg 77%
01:00 +3°C° 0 mm 3 mps 752 mmHg 78%
02:00 +4°C° 0 mm 2 mps 752 mmHg 80%
03:00 +4°C° 0 mm 2 mps 752 mmHg 81%
04:00 +4°C° 0 mm 2 mps 752 mmHg 83%
05:00 +6°C° 0 mm 1 mps 752 mmHg 80%
06:00 +6°C° 0 mm 1 mps 752 mmHg 78%
07:00 +7°C° 0 mm 1 mps 752 mmHg 75%
08:00 +7°C° 0.8 mm 1 mps 753 mmHg 79%
09:00 +8°C° 0.8 mm 1 mps 753 mmHg 83%
10:00 +8°C° 0.8 mm 1 mps 753 mmHg 86%
11:00 +8°C° 0.6 mm 1 mps 753 mmHg 88%
12:00 +7°C° 0.6 mm 1 mps 754 mmHg 90%
13:00 +7°C° 0.6 mm 1 mps 754 mmHg 92%
14:00 +7°C° 0 mm 1 mps 754 mmHg 90%
15:00 +8°C° 0 mm 1 mps 754 mmHg 89%
16:00 +8°C° 0 mm 1 mps 755 mmHg 88%
17:00 +6°C° 0 mm 2 mps 755 mmHg 90%
18:00 +6°C° 0 mm 2 mps 755 mmHg 92%
19:00 +6°C° 0 mm 2 mps 755 mmHg 93%
20:00 +6°C° 0 mm 2 mps 755 mmHg 94%
21:00 +6°C° 0 mm 2 mps 755 mmHg 94%
22:00 +5°C° 0 mm 2 mps 756 mmHg 95%
23:00 +6°C° 0 mm 2 mps 755 mmHg 95%

Tomorrow, 11 April, Sunday

Time Temperature Precipitation Wind Pressure Humidity
00:00 +5°C° 0 mm 3 mps 755 mmHg 95%
01:00 +5°C° 0 mm 3 mps 755 mmHg 95%
02:00 +5°C° 0 mm 3 mps 755 mmHg 95%
03:00 +5°C° 0 mm 3 mps 754 mmHg 95%
04:00 +5°C° 0 mm 4 mps 754 mmHg 95%
05:00 +5°C° 0 mm 4 mps 754 mmHg 92%
06:00 +6°C° 0 mm 4 mps 754 mmHg 90%
07:00 +7°C° 0 mm 4 mps 753 mmHg 87%
08:00 +8°C° 0 mm 5 mps 753 mmHg 79%
09:00 +10°C° 0 mm 5 mps 753 mmHg 70%
10:00 +13°C° 0 mm 6 mps 753 mmHg 62%
11:00 +14°C° 0 mm 6 mps 753 mmHg 58%
12:00 +15°C° 0 mm 6 mps 753 mmHg 55%
13:00 +16°C° 0 mm 6 mps 752 mmHg 51%
14:00 +16°C° 0 mm 6 mps 752 mmHg 53%
15:00 +16°C° 0 mm 6 mps 752 mmHg 54%
16:00 +16°C° 0 mm 6 mps 752 mmHg 56%
17:00 +14°C° 0 mm 5 mps 752 mmHg 61%
18:00 +12°C° 0 mm 5 mps 752 mmHg 66%
19:00 +10°C° 0 mm 5 mps 752 mmHg 71%
20:00 +9°C° 0 mm 5 mps 752 mmHg 74%
21:00 +8°C° 0 mm 5 mps 752 mmHg 78%
22:00 +8°C° 0 mm 4 mps 752 mmHg 82%
23:00 +7°C° 0 mm 4 mps 752 mmHg 85%

Day after tomorrow, 12 April, Monday

Time Temperature Precipitation Wind Pressure Humidity
00:00 +7°C° 0 mm 4 mps 752 mmHg 88%
01:00 +7°C° 0 mm 3 mps 752 mmHg 91%
02:00 +7°C° 0 mm 3 mps 752 mmHg 91%
03:00 +5°C° 0 mm 3 mps 751 mmHg 92%
04:00 +6°C° 0 mm 2 mps 751 mmHg 92%
05:00 +7°C° 0 mm 2 mps 752 mmHg 89%
06:00 +8°C° 0 mm 2 mps 752 mmHg 85%
07:00 +9°C° 0 mm 2 mps 752 mmHg 82%
08:00 +10°C° 0 mm 3 mps 752 mmHg 80%
09:00 +11°C° 0 mm 4 mps 753 mmHg 77%
10:00 +12°C° 0 mm 4 mps 753 mmHg 75%
11:00 +10°C° 0 mm 5 mps 753 mmHg 77%
12:00 +9°C° 0 mm 5 mps 754 mmHg 78%
13:00 +8°C° 0 mm 5 mps 754 mmHg 79%
14:00 +7°C° 0 mm 5 mps 755 mmHg 80%
15:00 +6°C° 0 mm 5 mps 755 mmHg 81%
16:00 +6°C° 0 mm 5 mps 755 mmHg 81%
17:00 +5°C° 0.1 mm 5 mps 756 mmHg 84%
18:00 +3°C° 0.1 mm 5 mps 757 mmHg 86%
19:00 +3°C° 0.1 mm 5 mps 757 mmHg 88%
20:00 +2°C° 0.3 mm 5 mps 757 mmHg 90%
21:00 +2°C° 0.3 mm 5 mps 758 mmHg 93%
22:00 +1°C° 0.3 mm 5 mps 758 mmHg 95%
23:00 +1°C° 0.3 mm 4 mps 759 mmHg 93%

13 April, Tuesday

Time Temperature Precipitation Wind Pressure Humidity
00:00 +1°C° 0.3 mm 4 mps 759 mmHg 91%
01:00 +2°C° 0.3 mm 3 mps 759 mmHg 88%
02:00 +2°C° 0.1 mm 3 mps 759 mmHg 87%
03:00 +2°C° 0.1 mm 3 mps 759 mmHg 85%
04:00 +1°C° 0.1 mm 3 mps 759 mmHg 83%
05:00 +1°C° 0 mm 3 mps 760 mmHg 82%
06:00 +2°C° 0 mm 3 mps 760 mmHg 82%
07:00 +2°C° 0 mm 3 mps 760 mmHg 81%
08:00 +3°C° 0 mm 4 mps 760 mmHg 74%
09:00 +4°C° 0 mm 4 mps 760 mmHg 67%
10:00 +5°C° 0 mm 5 mps 761 mmHg 60%
11:00 +6°C° 0 mm 5 mps 760 mmHg 54%
12:00 +7°C° 0 mm 5 mps 760 mmHg 47%
13:00 +8°C° 0 mm 5 mps 760 mmHg 41%
14:00 +8°C° 0 mm 5 mps 760 mmHg 41%
15:00 +8°C° 0 mm 5 mps 759 mmHg 40%
16:00 +8°C° 0 mm 5 mps 759 mmHg 40%
17:00 +7°C° 0 mm 4 mps 759 mmHg 44%
18:00 +6°C° 0 mm 4 mps 760 mmHg 48%
19:00 +5°C° 0 mm 3 mps 760 mmHg 53%
20:00 +5°C° 0 mm 3 mps 760 mmHg 55%
21:00 +4°C° 0 mm 3 mps 760 mmHg 58%
22:00 +5°C° 0 mm 2 mps 760 mmHg 61%
23:00 +4°C° 0 mm 2 mps 760 mmHg 64%

14 April, Wednesday

Time Temperature Precipitation Wind Pressure Humidity
00:00 +4°C° 0 mm 2 mps 760 mmHg 67%
01:00 +3°C° 0 mm 2 mps 760 mmHg 69%
02:00 +2°C° 0 mm 3 mps 760 mmHg 70%
03:00 +2°C° 0 mm 3 mps 760 mmHg 71%
04:00 +1°C° 0 mm 4 mps 760 mmHg 72%
05:00 +1°C° 0 mm 4 mps 760 mmHg 74%
06:00 +1°C° 0 mm 4 mps 760 mmHg 75%
07:00 +1°C° 0 mm 5 mps 760 mmHg 76%
08:00 +2°C° 0 mm 5 mps 760 mmHg 69%
09:00 +3°C° 0 mm 5 mps 760 mmHg 61%
10:00 +4°C° 0 mm 6 mps 760 mmHg 53%
11:00 +5°C° 0 mm 6 mps 760 mmHg 49%
12:00 +7°C° 0 mm 6 mps 759 mmHg 45%
13:00 +8°C° 0 mm 6 mps 759 mmHg 40%
14:00 +8°C° 0 mm 6 mps 759 mmHg 40%
15:00 +8°C° 0 mm 6 mps 759 mmHg 41%
16:00 +8°C° 0 mm 6 mps 758 mmHg 41%
17:00 +7°C° 0 mm 5 mps 759 mmHg 47%
18:00 +5°C° 0 mm 5 mps 759 mmHg 53%
19:00 +4°C° 0 mm 4 mps 759 mmHg 59%
20:00 +3°C° 0 mm 4 mps 759 mmHg 64%
21:00 +2°C° 0 mm 3 mps 759 mmHg 70%
22:00 +1°C° 0 mm 3 mps 759 mmHg 75%
23:00 +1°C° 0 mm 3 mps 759 mmHg 78%

15 April, Thursday

Time Temperature Precipitation Wind Pressure Humidity
00:00 0°C° 0 mm 3 mps 759 mmHg 80%
01:00 0°C° 0 mm 3 mps 759 mmHg 83%
02:00 0°C° 0 mm 3 mps 759 mmHg 84%
03:00 0°C° 0 mm 3 mps 759 mmHg 86%
04:00 0°C° 0 mm 3 mps 759 mmHg 87%
05:00 0°C° 0 mm 3 mps 760 mmHg 82%
06:00 +1°C° 0 mm 3 mps 760 mmHg 77%
07:00 +1°C° 0 mm 4 mps 760 mmHg 72%
08:00 +3°C° 0 mm 4 mps 760 mmHg 65%
09:00 +3°C° 0 mm 5 mps 760 mmHg 58%
10:00 +6°C° 0 mm 5 mps 760 mmHg 52%
11:00 +5°C° 0 mm 6 mps 760 mmHg 49%
12:00 +7°C° 0 mm 6 mps 760 mmHg 46%
13:00 +8°C° 0 mm 6 mps 760 mmHg 43%
14:00 +8°C° 0 mm 6 mps 760 mmHg 43%
15:00 +8°C° 0 mm 6 mps 760 mmHg 43%
16:00 +8°C° 0 mm 6 mps 760 mmHg 44%
17:00 +7°C° 0 mm 6 mps 760 mmHg 48%
18:00 +6°C° 0 mm 5 mps 760 mmHg 53%
19:00 +5°C° 0 mm 5 mps 760 mmHg 58%
20:00 +3°C° 0 mm 5 mps 761 mmHg 61%
21:00 +3°C° 0 mm 5 mps 761 mmHg 65%
22:00 +3°C° 0 mm 4 mps 761 mmHg 68%
23:00 +2°C° 0 mm 5 mps 761 mmHg 71%
Show more